Weather reports worldwide

Advertisment
Prestwick, United Kingdom (3136): temperature & dewpoint: 17.03.2019 09:00:00 - 23.03.2019 09:00:00 (GMT)Prestwick, United Kingdom (3136): temperature -20cm & temperature -100cm: 17.03.2019 09:00:00 - 23.03.2019 09:00:00 (GMT)Prestwick, United Kingdom (3136): wind speed & gusts: 17.03.2019 09:00:00 - 23.03.2019 09:00:00 (GMT)Prestwick, United Kingdom (3136): wind direction: 17.03.2019 09:00:00 - 23.03.2019 09:00:00 (GMT)Prestwick, United Kingdom (3136): reduced air pressure: 17.03.2019 09:00:00 - 23.03.2019 09:00:00 (GMT)Prestwick, United Kingdom (3136): visibility: 17.03.2019 09:00:00 - 23.03.2019 09:00:00 (GMT)Prestwick, United Kingdom (3136): sunshine duration: 17.03.2019 09:00:00 - 23.03.2019 09:00:00 (GMT)Prestwick, United Kingdom (3136): precipitation: 17.03.2019 09:00:00 - 23.03.2019 09:00:00 (GMT)
Date & Time tt [°C] td [°C] tt -20cm [°C] tt -100cm [°C] ff [km/h] ff [kn] fx [km/h] fx [kn] dd ppp [hPa] vv [km] sd [min] rr [mm]
23.03.2019 09:00:00 7,0 2,6 8,0 7,7 18 10 - - WSW 1030,7 13 60 0,0
23.03.2019 08:00:00 6,4 2,4 - - 22 12 - - WSW 1029,8 19 18 0,0
23.03.2019 07:00:00 5,8 1,9 - - 24 13 - - WSW 1029,3 22 0 0,0
23.03.2019 06:00:00 5,4 1,8 - - 18 10 - - WSW 1028,7 21 0 0,2
23.03.2019 05:00:00 4,9 2,8 - - 29 16 46 25 W 1028,2 3,0 0 0,4
23.03.2019 04:00:00 6,0 1,1 - - 22 12 - - W 1027,4 17 0 0,0
23.03.2019 03:00:00 6,0 0,9 - - 28 15 - - W 1026,9 18 0 0,0
23.03.2019 02:00:00 5,8 1,1 - - 28 15 46 25 W 1026,8 21 0 0,0
23.03.2019 01:00:00 6,1 1,5 - - 26 14 - - W 1026,2 8 0 0,0
23.03.2019 00:00:00 6,7 2,8 - - 28 15 - - WSW 1025,5 10 - 0,0
22.03.2019 23:00:00 6,9 0,4 - - 21 11 - - W 1025,1 16 0 0,0
22.03.2019 22:00:00 6,8 3,7 - - 24 13 - - WSW 1024,3 11 0 0,0
22.03.2019 21:00:00 6,7 2,1 - - 31 17 52 28 WSW 1023,6 16 0 0,0
22.03.2019 20:00:00 7,3 2,2 - - 29 16 46 25 W 1023,1 17 0 0,0
22.03.2019 19:00:00 8,1 2,2 - - 26 14 46 25 W 1021,9 14 0 0,0
22.03.2019 18:00:00 8,3 3,7 - - 28 15 - - W 1020,9 12 6 0,0
22.03.2019 17:00:00 9,1 5,2 - - 21 11 - - WSW 1020,0 13 0 0,0
22.03.2019 16:00:00 9,1 6,0 - - 21 11 - - WSW 1019,4 15 6 0,0
22.03.2019 15:00:00 8,5 7,3 - - 18 10 - - SW 1019,2 15 0 0,2
22.03.2019 14:00:00 8,2 7,3 - - 16 9 48 26 WSW 1018,4 3,3 0 0,6
22.03.2019 13:00:00 9,8 8,5 - - 37 20 52 28 SSW 1017,4 6 0 1,2
22.03.2019 12:00:00 9,5 8,2 - - 35 19 52 28 SSW 1017,1 12 0 0,8
22.03.2019 11:00:00 9,8 7,8 - - 34 18 55 30 S 1017,3 9 0 0,0
22.03.2019 10:00:00 10,5 7,0 - - 37 20 57 31 S 1017,4 40 0 0,0
22.03.2019 09:00:00 10,4 7,2 8,2 7,7 41 22 61 33 S 1018,2 30 0 0,0
22.03.2019 08:00:00 10,3 7,4 - - 42 23 65 35 S 1018,4 35 0 0,0
22.03.2019 07:00:00 10,3 7,4 - - 42 23 59 32 S 1018,8 50 0 0,0
22.03.2019 06:00:00 9,9 7,5 - - 39 21 55 30 S 1019,5 40 0 0,0
22.03.2019 05:00:00 9,4 7,6 - - 26 14 46 25 S 1019,9 9 0 0,0
22.03.2019 04:00:00 9,5 7,1 - - 31 17 65 35 S 1020,6 50 0 0,0
22.03.2019 03:00:00 9,5 7,1 - - 41 22 59 32 S 1021,7 40 0 0,0
22.03.2019 02:00:00 9,0 6,7 - - 29 16 - - S 1022,4 24 0 0,0
22.03.2019 01:00:00 8,9 6,5 - - 29 16 - - S 1023,4 50 0 0,0
22.03.2019 00:00:00 9,3 6,5 - - 18 10 - - S 1024,3 18 - 0,0
21.03.2019 23:00:00 10,0 7,0 - - 21 11 - - S 1024,9 24 0 0,0
21.03.2019 22:00:00 10,3 7,1 - - 15 8 - - S 1026,0 29 0 0,0
21.03.2019 21:00:00 10,6 7,2 - - 24 13 - - S 1026,8 35 0 0,0
21.03.2019 20:00:00 11,1 7,8 - - 21 11 - - S 1027,0 40 0 0,0
21.03.2019 19:00:00 11,2 8,0 - - 21 11 - - SSE 1027,4 50 0 0,0
21.03.2019 18:00:00 12,4 9,4 - - 16 9 - - S 1027,5 50 0 0,0
21.03.2019 17:00:00 12,6 9,5 - - 18 10 - - S 1028,0 45 0 0,0
21.03.2019 16:00:00 12,5 9,3 - - 16 9 - - SW 1028,5 24 0 0,0
21.03.2019 15:00:00 13,0 9,3 - - 18 10 - - SW 1028,9 28 0 0,0
21.03.2019 14:00:00 12,4 9,3 - - 16 9 - - SW 1029,3 35 0 0,0
21.03.2019 13:00:00 12,5 9,7 - - 24 13 - - SW 1029,8 30 0 0,0
21.03.2019 12:00:00 11,8 9,5 - - 24 13 - - SW 1029,8 40 0 0,0
21.03.2019 11:00:00 11,8 9,7 - - 28 15 - - SW 1029,5 45 0 0,0
21.03.2019 10:00:00 10,9 9,7 - - 29 16 - - SW 1029,2 10 0 0,0
21.03.2019 09:00:00 11,2 9,5 7,9 7,5 29 16 - - SW 1028,6 45 0 0,0
21.03.2019 08:00:00 11,3 9,1 - - 35 19 46 25 SW 1027,9 40 0 0,0
21.03.2019 07:00:00 11,2 8,9 - - 34 18 - - SW 1027,2 45 0 0,0
21.03.2019 06:00:00 10,9 8,8 - - 28 15 - - SSW 1026,4 40 0 0,0
21.03.2019 05:00:00 10,7 8,5 - - 31 17 46 25 SW 1026,3 35 0 0,0
21.03.2019 04:00:00 10,0 8,1 - - 21 11 - - SSW 1026,2 22 0 0,0
21.03.2019 03:00:00 10,2 8,4 - - 24 13 48 26 SSW 1026,4 19 0 0,0
21.03.2019 02:00:00 10,2 8,9 - - 34 18 46 25 SW 1026,1 11 0 0,2
21.03.2019 01:00:00 10,7 9,4 - - 34 18 50 27 SW 1026,1 8 0 0,0
21.03.2019 00:00:00 11,6 9,5 - - 31 17 46 25 SW 1025,9 30 - 0,0
20.03.2019 23:00:00 11,8 10,2 - - 31 17 - - SW 1025,9 40 0 0,0
20.03.2019 22:00:00 12,0 10,7 - - 31 17 46 25 SSW 1025,8 29 0 0,2
20.03.2019 21:00:00 11,1 9,9 - - 26 14 - - SSW 1025,4 30 0 0,0
20.03.2019 20:00:00 12,2 9,7 - - 26 14 - - SSW 1025,2 45 0 0,0
20.03.2019 19:00:00 12,5 9,9 - - 22 12 - - S 1025,0 45 0 0,0
20.03.2019 18:00:00 13,0 10,0 - - 21 11 - - S 1025,0 50 0 0,0
20.03.2019 17:00:00 13,0 10,1 - - 28 15 - - SW 1025,3 40 0 0,0
20.03.2019 16:00:00 13,2 10,1 - - 28 15 - - SW 1025,3 45 0 0,0
20.03.2019 15:00:00 13,4 10,3 - - 21 11 - - SW 1025,7 45 0 0,0
20.03.2019 14:00:00 12,2 9,8 - - 8 4 - - W 1026,0 35 0 0,0
20.03.2019 13:00:00 10,9 9,3 - - 15 8 - - WSW 1026,6 45 0 0,0
20.03.2019 12:00:00 11,1 9,4 - - 16 9 - - WSW 1026,6 26 0 0,0
20.03.2019 11:00:00 11,2 9,8 - - 22 12 - - SSW 1026,7 50 0 0,0
20.03.2019 10:00:00 9,8 9,0 - - 11 6 - - WSW 1027,2 4,7 0 0,0
20.03.2019 09:00:00 10,1 9,4 7,4 7,4 16 9 - - SSW 1027,1 8 0 0,0
20.03.2019 08:00:00 9,8 9,0 - - 21 11 - - SSW 1026,7 3,4 0 0,0
20.03.2019 07:00:00 10,0 8,7 - - 16 9 - - SSW 1026,2 11 0 0,0
20.03.2019 06:00:00 9,6 9,0 - - 21 11 - - SW 1025,8 6 0 0,0
20.03.2019 05:00:00 9,8 8,7 - - 21 11 - - SW 1025,5 30 0 0,0
20.03.2019 04:00:00 9,5 8,0 - - 13 7 - - SSW 1025,3 50 0 0,0
20.03.2019 03:00:00 9,4 7,8 - - 18 10 - - SW 1025,5 50 0 0,0
20.03.2019 02:00:00 9,5 7,9 - - 13 7 - - SW 1025,4 45 0 0,0
20.03.2019 01:00:00 9,1 8,1 - - 13 7 - - SW 1025,4 40 0 0,0
20.03.2019 00:00:00 9,0 8,0 - - 16 9 46 25 WSW 1025,4 3,5 - 0,0
19.03.2019 23:00:00 9,2 7,8 - - 15 8 - - SW 1025,1 35 0 0,0
19.03.2019 22:00:00 9,6 8,2 - - 22 12 - - WSW 1024,6 40 0 0,0
19.03.2019 21:00:00 9,4 8,1 - - 16 9 - - WSW 1024,3 45 0 0,0
19.03.2019 20:00:00 9,4 8,1 - - 24 13 - - WSW 1023,7 35 0 0,0
19.03.2019 19:00:00 9,5 8,0 - - 21 11 - - SW 1023,5 50 0 0,0
19.03.2019 18:00:00 9,4 8,3 - - 13 7 - - SSW 1023,1 40 0 0,0
19.03.2019 17:00:00 9,3 8,7 - - 26 14 - - WSW 1022,1 18 0 0,0
19.03.2019 16:00:00 9,9 8,9 - - 26 14 - - SW 1022,0 19 0 0,0
19.03.2019 15:00:00 10,4 9,2 - - 22 12 - - SW 1021,4 40 0 0,0
19.03.2019 14:00:00 9,8 8,4 - - 21 11 - - SW 1021,3 45 0 0,0
19.03.2019 13:00:00 9,5 8,4 - - 22 12 - - SW 1021,1 35 0 0,0
19.03.2019 12:00:00 9,2 8,6 - - 22 12 - - SSW 1021,4 15 0 0,0
19.03.2019 11:00:00 8,8 7,1 - - 21 11 - - SW 1021,8 28 0 0,0
19.03.2019 10:00:00 8,7 6,4 - - 22 12 - - SSW 1021,5 35 0 0,0
19.03.2019 09:00:00 8,4 6,1 7,0 7,4 26 14 - - SW 1021,7 21 0 0,2
19.03.2019 08:00:00 8,4 6,1 - - 16 9 - - SSW 1021,5 19 0 0,0
19.03.2019 07:00:00 8,1 6,9 - - 18 10 - - SW 1021,2 23 0 0,0
19.03.2019 06:00:00 7,9 7,4 - - 16 9 - - SW 1021,2 17 0 0,0
19.03.2019 05:00:00 8,0 7,7 - - 16 9 - - SW 1021,3 17 0 0,0
19.03.2019 04:00:00 7,8 7,7 - - 18 10 - - SW 1021,2 4,6 0 0,0
19.03.2019 03:00:00 7,8 7,5 - - 15 8 - - SW 1021,1 13 0 0,0
19.03.2019 02:00:00 7,3 7,1 - - 9 5 - - S 1021,4 9 0 0,0
19.03.2019 01:00:00 6,7 6,5 - - 5 3 - - SSE 1021,3 9 0 0,0
19.03.2019 00:00:00 5,8 5,5 - - 5 3 - - ESE 1021,5 10 - 0,0
18.03.2019 23:00:00 5,4 5,0 - - 5 3 - - SE 1021,3 9 0 0,0
18.03.2019 22:00:00 6,5 6,0 - - 5 3 - - SE 1020,8 13 0 0,0
18.03.2019 21:00:00 7,4 6,9 - - 4 2 - - ESE 1020,7 26 0 0,0
18.03.2019 20:00:00 7,6 6,8 - - 5 3 - - SSW 1020,2 28 0 0,0
18.03.2019 19:00:00 7,9 6,9 - - 5 3 - - WSW 1019,5 40 0 0,0
18.03.2019 18:00:00 8,2 7,1 - - 8 4 - - WSW 1018,6 20 12 0,0
18.03.2019 17:00:00 9,1 7,2 - - 13 7 - - SW 1017,6 25 42 0,0
18.03.2019 16:00:00 8,4 7,2 - - 5 3 - - SSW 1017,3 45 0 0,0
18.03.2019 15:00:00 7,7 6,7 - - 9 5 - - SSW 1017,1 50 0 0,2
18.03.2019 14:00:00 7,6 6,3 - - 13 7 - - S 1017,1 24 0 0,6
18.03.2019 13:00:00 6,9 5,8 - - 9 5 - - SW 1017,0 11 0 0,6
18.03.2019 12:00:00 6,9 5,4 - - 13 7 - - SSW 1016,7 16 0 0,6
18.03.2019 11:00:00 6,6 5,3 - - 15 8 - - SSW 1016,5 12 0 0,6
18.03.2019 10:00:00 6,5 5,1 - - 16 9 - - SSW 1016,0 23 0 0,2
18.03.2019 09:00:00 6,0 5,0 6,9 7,4 13 7 - - SW 1015,7 20 0 0,2
18.03.2019 08:00:00 5,3 4,0 - - 8 4 - - SW 1015,6 10 0 0,6
18.03.2019 07:00:00 5,4 3,6 - - 15 8 - - WSW 1015,3 8 0 0,2
18.03.2019 06:00:00 5,6 3,1 - - 21 11 - - W 1014,9 45 0 0,0
18.03.2019 05:00:00 4,6 3,3 - - 5 3 - - SE 1014,6 24 0 0,0
18.03.2019 04:00:00 4,6 3,0 - - 2 1 - - N 1014,5 30 0 0,4
18.03.2019 03:00:00 6,0 3,9 - - 9 5 - - WSW 1014,5 21 0 0,0
18.03.2019 02:00:00 5,8 3,4 - - 8 4 - - SW 1014,2 22 0 0,0
18.03.2019 01:00:00 5,8 2,6 - - 11 6 - - WNW 1014,0 27 0 0,0
18.03.2019 00:00:00 5,0 2,0 - - 11 6 - - NW 1013,6 23 - 0,0
17.03.2019 23:00:00 5,8 2,1 - - 15 8 - - WNW 1013,3 25 0 0,0
17.03.2019 22:00:00 4,8 1,2 - - 11 6 - - WNW 1012,6 28 0 0,0
17.03.2019 21:00:00 4,9 0,4 - - 13 7 - - NW 1011,8 27 0 0,0
17.03.2019 20:00:00 5,7 0,1 - - 11 6 - - NW 1011,0 30 0 0,0
17.03.2019 19:00:00 6,6 1,4 - - 8 4 - - WNW 1010,0 24 6 0,0
17.03.2019 18:00:00 7,6 1,7 - - 22 12 - - NW 1008,1 30 60 0,0
17.03.2019 17:00:00 8,5 3,1 - - 21 11 - - NW 1006,5 30 60 0,0
17.03.2019 16:00:00 8,7 3,3 - - 24 13 - - WNW 1005,1 30 42 0,0
17.03.2019 15:00:00 9,6 2,9 - - 24 13 - - NW 1003,4 30 54 0,0
17.03.2019 14:00:00 8,4 4,2 - - 21 11 - - WNW 1002,4 28 24 0,0
17.03.2019 13:00:00 7,0 5,0 - - 21 11 - - WSW 1001,1 20 48 0,0
17.03.2019 12:00:00 6,7 4,4 - - 22 12 - - W 1000,0 30 18 3,6
17.03.2019 11:00:00 5,7 3,7 - - 21 11 - - W 999,0 13 6 0,2
17.03.2019 10:00:00 5,9 2,9 - - 24 13 46 25 WSW 997,9 27 36 0,0
17.03.2019 09:00:00 5,7 -0,1 6,9 7,5 29 16 - - WSW 997,1 40 54 0,0

tt = temperature
td = dewpoint
tt -20cm = temperature -20cm
tt -100cm = temperature -100cm
ff = wind speed
fx = gusts
dd = wind direction
ppp = reduced air pressure
vv = visibility
sd = sunshine duration
rr = precipitation

Next stations